EW5860 Weather Reports


time (UTC)temp
C
wind
direction
speed
KPH
gust
KPH
rain 1hr
cm
rain 24hr
cm
rain mn
cm
humidity
%
barometer
mb
20260507171519 16 127 1.6 8.0 0.00 1.24 1.19 44 1009.9
20260507170018 16 38 1.6 6.4 0.00 1.24 1.19 46 1010.1
20260507164518 15 323 3.2 9.7 0.00 1.27 1.19 44 1010.4
20260507163013 15 328 4.8 12.9 0.00 1.27 1.19 44 1010.7
20260507161511 15 223 3.2 14.5 0.00 1.27 1.19 49 1010.8
20260507160008 14 41 1.6 14.5 0.00 1.27 1.19 50 1010.8
20260507154506 14 259 1.6 16.1 0.00 1.45 1.19 53 1011.0
20260507153005 14 71 3.2 9.7 0.00 1.45 1.19 53 1011.2
20260507151600 13 271 3.2 12.9 0.00 1.45 1.19 54 1011.4
20260507150100 13 320 3.2 9.7 0.00 1.45 1.19 56 1011.6
20260507144559 12 51 3.2 9.7 0.00 1.70 1.19 61 1011.8
20260507143056 12 57 1.6 9.7 0.00 1.70 1.19 59 1012.1
20260507141601 12 129 1.6 6.4 0.00 1.70 1.19 63 1012.1
20260507140111 12 34 1.6 6.4 0.00 1.70 1.19 66 1012.0
20260507134553 11 255 3.2 12.9 0.00 1.75 1.19 67 1012.2
20260507133052 11 241 0.0 12.9 0.00 1.75 1.19 67 1012.4
20260507131602 11 263 0.0 1.6 0.00 1.75 1.19 76 1012.3
20260507130056 11 347 1.6 8.0 0.00 1.75 1.19 75 1012.2
20260507124603 10 341 0.0 6.4 0.00 1.75 1.19 84 1012.2
20260507123056 10 326 0.0 3.2 0.00 1.75 1.19 85 1012.1
20260507121548 10 38 0.0 3.2 0.00 1.75 1.19 87 1012.2
20260507120046 10 222 0.0 1.6 0.00 1.75 1.19 88 1012.1
20260507114547 9 227 0.0 1.6 0.00 1.75 1.19 90 1012.0
20260507113043 9 238 0.0 6.4 0.00 1.75 1.19 92 1011.8
20260507111544 9 266 0.0 1.6 0.00 1.75 1.19 94 1011.7
20260507110038 9 244 0.0 6.4 0.00 1.75 1.19 94 1011.3
20260507104539 8 276 0.0 4.8 0.00 1.75 1.19 95 1011.3
20260507103033 9 255 0.0 4.8 0.00 1.75 1.19 96 1010.9
20260507101541 9 320 0.0 4.8 0.00 1.75 1.19 96 1010.7
20260507100035 9 333 0.0 3.2 0.00 1.75 1.19 96 1010.6
20260507094533 9 11 0.0 0.0 0.00 1.75 1.19 96 1010.5
20260507093038 9 11 0.0 0.0 0.00 1.75 1.19 96 1010.3
20260507091531 9 11 0.0 0.0 0.00 1.75 1.19 96 1010.2
20260507090033 9 11 0.0 0.0 0.00 1.75 1.19 96 1010.1
20260507084529 9 11 0.0 0.0 0.00 1.75 1.19 96 1010.0
20260507083037 9 11 0.0 0.0 0.00 1.75 1.19 96 1010.2
20260507081530 9 11 0.0 0.0 0.03 1.75 1.19 96 1010.1
20260507080026 9 11 0.0 0.0 0.03 1.75 1.19 95 1010.1
20260507074529 10 11 0.0 0.0 0.05 1.75 1.19 95 1010.3
20260507073025 10 11 0.0 0.0 0.08 1.75 1.19 95 1010.6
20260507071524 10 11 0.0 0.0 0.08 1.73 1.17 95 1010.6
20260507070024 10 11 0.0 0.0 0.10 1.73 1.17 95 1010.6
20260507064523 10 11 0.0 0.0 0.10 1.70 1.14 95 1010.7
20260507063026 10 11 0.0 1.6 0.18 1.68 1.12 94 1010.8
20260507061520 10 9 0.0 3.2 0.23 1.65 1.09 94 1010.4
20260507060022 10 36 0.0 6.4 0.33 1.63 1.07 94 1010.7
20260507054516 10 274 0.0 3.2 0.69 1.60 1.04 94 1010.7
20260507053016 10 257 0.0 4.8 0.76 1.50 0.94 94 1011.0
20260507051513 10 110 0.0 1.6 0.79 1.40 0.84 93 1010.4
20260507050011 11 315 0.0 3.2 0.71 1.27 0.71 92 1010.3
20260507044508 11 240 0.0 3.2 0.36 0.91 0.36 91 1010.4
20260507043007 11 202 0.0 4.8 0.18 0.71 0.18 89 1010.0
20260507041607 12 323 0.0 4.8 0.05 0.61 0.05 87 1009.7
20260507040105 12 321 0.0 3.2 0.00 0.56 0.00 86 1009.8
20260507034600 13 19 0.0 4.8 0.00 0.56 0.56 85 1009.7
20260507033053 13 251 0.0 16.1 0.00 0.56 0.56 86 1009.9
20260507031549 14 65 0.0 12.9 0.00 0.56 0.56 88 1009.3
20260507030053 14 306 0.0 6.4 0.00 0.56 0.56 87 1009.4
20260507024546 15 321 1.6 12.9 0.00 0.56 0.56 86 1009.1
20260507023041 15 34 3.2 12.9 0.00 0.56 0.56 87 1008.9
20260507021544 16 145 0.0 6.4 0.00 0.56 0.56 88 1009.0
20260507020040 16 345 1.6 6.4 0.00 0.56 0.56 87 1009.0
20260507014540 17 277 3.2 11.3 0.00 0.56 0.56 87 1008.9
20260507013040 17 248 1.6 6.4 0.00 0.56 0.56 89 1008.6
20260507011541 17 232 3.2 16.1 0.00 0.56 0.56 90 1008.8
20260507010138 17 246 1.6 4.8 0.00 0.56 0.56 91 1008.5
20260507004537 17 271 0.0 1.6 0.00 0.56 0.56 93 1008.5
20260507003037 17 273 0.0 1.6 0.00 0.56 0.56 92 1007.9
20260507001548 17 273 0.0 3.2 0.00 0.56 0.56 90 1007.6
20260507000039 18 273 0.0 4.8 0.00 0.56 0.56 89 1007.4
20260506234543 18 194 0.0 3.2 0.00 0.56 0.56 88 1007.2
20260506233035 18 264 0.0 8.0 0.00 0.56 0.56 87 1007.2
20260506231537 18 175 3.2 11.3 0.00 0.56 0.56 86 1007.0
20260506230034 18 211 4.8 11.3 0.00 0.56 0.56 86 1007.0
20260506224534 18 235 4.8 12.9 0.00 0.56 0.56 85 1007.2
20260506223035 19 194 1.6 12.9 0.00 0.56 0.56 85 1006.9
20260506221532 19 223 3.2 8.0 0.00 0.56 0.56 84 1006.9
20260506220032 19 171 1.6 4.8 0.00 0.56 0.56 84 1006.8
20260506214531 19 206 3.2 6.4 0.00 0.56 0.56 83 1007.1
20260506213033 20 142 3.2 11.3 0.00 0.56 0.56 82 1006.7
20260506211530 18 209 4.8 9.7 0.00 0.56 0.56 86 1006.6
20260506210030 18 198 1.6 6.4 0.00 0.56 0.56 88 1006.5
20260506204533 18 200 1.6 9.7 0.00 0.56 0.56 89 1006.6
20260506203038 17 261 1.6 4.8 0.00 0.56 0.56 88 1006.6
20260506201528 18 240 4.8 11.3 0.00 0.56 0.56 87 1006.5
20260506200031 18 191 4.8 14.5 0.00 0.56 0.56 87 1006.5
20260506194526 17 192 3.2 14.5 0.00 0.56 0.56 89 1006.6
20260506193026 17 209 6.4 20.9 0.00 0.56 0.56 89 1006.6
20260506191524 17 136 4.8 16.1 0.05 0.56 0.56 92 1006.7
20260506190032 16 208 8.0 25.7 0.05 0.56 0.56 93 1006.8
20260506184522 16 187 6.4 16.1 0.05 0.56 0.56 94 1007.0
20260506183020 16 190 9.7 27.4 0.05 0.56 0.56 94 1007.4
20260506181518 16 242 6.4 29.0 0.00 0.51 0.51 92 1007.5
20260506180018 16 178 9.7 25.7 0.00 0.51 0.51 90 1007.5
20260506174518 16 224 6.4 19.3 0.00 0.51 0.51 90 1007.7
20260506173016 16 128 8.0 24.1 0.00 0.51 0.51 90 1007.5